Lid_Strength_Index
4 4 4 4 4 4 4 4 4 4 4 4 4 4 4 3 4 6 9 6 4 1 0 4 5 5 4 6 6 7 13 15 13 12 10 8 8 6 6 7 6 5 5 3 2
4 4 4 4 4 4 4 4 4 4 4 4 4 4 4 3 7 8 5 1 -1 -2 5 7 7 6 8 7 7 9 13 13 11 10 10 8 7 7 7 7 7 5 4 3 3
4 4 4 4 4 4 4 4 4 4 4 4 4 5 4 4 9 7 -0 -1 -1 -1 5 6 7 8 10 7 8 9 11 9 9 9 9 8 8 7 7 9 8 7 5 4 3
5 4 4 5 5 5 5 5 5 4 4 5 5 5 5 7 14 4 -0 -1 -2 2 5 7 9 12 11 11 7 9 8 7 7 7 9 10 9 9 9 8 6 6 4 4 4
5 5 5 5 5 5 5 5 5 5 5 5 5 5 7 10 9 3 -1 -1 3 4 6 6 9 11 12 10 8 9 8 7 7 7 8 9 10 9 10 8 6 6 4 4 4
5 5 5 5 5 4 4 4 4 4 5 5 5 5 8 13 6 3 1 2 4 4 3 4 5 7 10 10 10 9 8 7 7 8 8 8 9 10 9 8 7 7 6 8 7
5 5 5 5 5 4 4 5 5 5 4 5 5 6 9 10 6 5 5 7 6 5 6 4 4 6 8 10 7 8 10 8 8 8 8 8 10 9 9 8 8 8 7 7 10
5 5 5 5 5 5 4 5 5 4 4 4 4 6 11 5 5 6 6 6 5 6 6 6 5 6 7 7 7 9 10 12 9 8 7 8 10 8 7 8 9 8 8 8 7
5 5 5 5 5 5 5 5 4 4 4 4 6 7 10 3 5 4 5 6 6 6 6 5 6 8 8 10 11 11 13 12 11 7 7 8 10 7 7 9 10 9 9 9 9
5 5 6 5 5 5 5 5 4 5 5 4 5 8 6 7 4 4 5 5 7 7 7 8 9 11 11 12 16 13 13 11 11 9 7 9 9 7 7 7 7 9 8 9 8
5 6 6 6 5 6 7 8 8 10 7 8 8 8 6 4 3 4 3 4 4 5 9 9 12 13 12 9 9 10 10 11 10 7 8 9 9 8 7 7 7 8 8 8 8
5 5 5 5 6 6 7 8 7 8 11 7 8 8 6 5 7 5 4 6 6 10 8 9 12 9 7 8 9 9 11 12 10 8 9 9 9 8 7 7 7 8 8 8 7
6 6 6 5 6 6 6 6 5 5 11 9 7 7 7 5 7 6 4 5 7 8 9 11 9 7 8 9 9 10 11 11 10 8 8 10 11 10 8 6 6 7 6 7 7
6 6 5 6 7 7 6 5 4 3 13 9 6 5 4 4 6 3 3 6 8 9 8 9 7 8 9 10 9 11 8 9 9 11 13 10 15 12 9 8 7 7 7 7 7
6 6 5 6 9 8 4 3 4 5 20 7 7 3 6 6 6 5 3 6 10 10 10 12 11 10 11 10 9 11 8 10 11 12 12 12 14 12 9 9 8 7 7 7 7
6 6 6 7 6 5 3 4 5 12 19 10 9 9 10 9 8 7 7 4 5 9 9 10 7 8 9 8 8 8 10 11 12 13 18 13 13 13 11 10 8 7 7 6 6
6 6 7 6 7 3 3 6 13 17 8 10 11 10 11 11 10 10 10 11 12 15 14 10 10 7 7 10 8 9 11 19 20 20 20 11 13 12 9 7 7 7 7 6 6
6 6 6 4 3 3 6 10 16 12 11 9 10 10 12 10 10 9 10 12 9 9 13 15 17 10 7 9 12 13 13 16 23 21 18 12 15 12 7 6 6 6 6 6 6
7 8 7 3 2 3 9 14 13 10 9 10 10 12 12 9 9 9 10 10 9 10 15 16 15 8 8 8 9 12 15 12 16 15 18 17 12 9 7 7 7 7 7 7 6
9 8 6 2 2 5 10 12 10 7 8 9 13 10 13 11 11 11 11 8 9 8 8 12 17 10 9 8 9 11 9 17 17 21 22 17 16 13 12 11 8 7 8 7 6
8 9 4 3 3 7 11 10 9 7 7 9 10 10 10 12 11 12 11 10 8 9 8 10 13 13 10 13 13 13 14 14 15 16 20 19 16 11 12 10 10 9 7 7 8
9 11 4 2 9 8 9 9 7 8 6 7 7 8 11 11 12 12 13 11 7 8 12 10 13 17 14 9 9 11 13 13 18 18 16 17 17 10 10 10 9 8 7 7 7
10 9 3 4 11 11 9 9 8 7 7 8 8 8 9 12 14 11 11 8 7 9 11 10 14 18 16 13 11 13 12 12 13 14 17 19 18 9 9 9 8 9 8 7 7
9 11 8 7 7 9 11 10 10 6 7 7 8 7 10 11 9 11 10 8 7 8 7 9 13 15 19 15 12 14 12 12 14 18 17 16 13 12 11 10 9 9 8 8 7
7 10 9 12 11 9 10 9 10 10 7 7 9 9 10 13 12 12 10 9 8 7 8 10 15 13 12 11 12 13 12 12 15 14 17 14 13 13 11 10 9 8 8 8 7
10 11 9 10 9 9 9 10 9 9 9 9 10 9 9 12 12 13 11 11 11 9 10 10 15 13 15 11 12 13 12 12 12 12 13 13 13 10 9 8 9 8 8 8 7
8 7 9 9 10 11 11 9 9 8 8 8 9 10 11 9 8 7 7 8 8 10 11 11 13 15 18 13 13 17 13 12 11 10 11 15 12 9 10 9 9 8 8 8 7